Weather History for LGRP - September, 2012

Change the Weather History Date:

Saturday, September 29, 2012

  Actual Average Record
Temperature  
Mean Temperature 76 °F -  
Max Temperature 81 °F 76 °F 87 °F (2010)
Min Temperature 72 °F 62 °F 66 °F (1997)
Cooling Degree Days 12    
Growing Degree Days 26 (Base 50)    
Moisture  
Dew Point 71 °F    
Average Humidity 82    
Maximum Humidity 89    
Minimum Humidity 69    
Precipitation  
Precipitation 0.00 in 0.08 in - ()
Sea Level Pressure  
Sea Level Pressure 29.90 in    
Wind  
Wind Speed 7 mph ()    
Max Wind Speed 16 mph    
Max Gust Speed -    
Visibility 5.1 miles    
Events      
Averages and records for this station are not official NWS values.
T = Trace of Precipitation, MM = Missing Value Source: Averaged Metar Reports

Daily Weather History Graph

Daily Weather History Graph

Search for Another Location

Airport or City:

Trip Planner

Search our weather history database for the weather conditions in past years. The results will help you decide how hot, cold, wet, or windy it might be!

Date:

Astronomy

Sep. 29, 2012 Rise Set
Actual Time 7:01 AM EEST 6:53 PM EEST
Civil Twilight 6:35 AM EEST 7:19 PM EEST
Nautical Twilight 6:05 AM EEST 7:49 PM EEST
Astronomical Twilight 5:35 AM EEST 8:19 PM EEST
Moon 6:17 PM EEST (9/29) 6:12 AM EEST (9/29)
Length of Visible Light 12h 43m
Length of Day
11h 52m
Waxing Gibbous, 99% of the Moon is Illuminated
Sep 29
Waxing Gibbous
Sep 30
Full
Oct 8
Last Quarter
Oct 15
New
Oct 22
First Quarter

Hourly Weather History & Observations

Time (EEST) Temp. Heat Index Dew Point Humidity Pressure Visibility Wind Dir Wind Speed Gust Speed Precip Events Conditions
12:20 AM 75.2 °F - 68.0 °F 78% 29.92 in - SSW 5.8 mph - N/A   Clear
12:50 AM 75.2 °F - 68.0 °F 78% 29.92 in - SSW 5.8 mph - N/A   Clear
1:20 AM 75.2 °F - 68.0 °F 78% 29.92 in - SSW 5.8 mph - N/A   Clear
1:50 AM 75.2 °F - 68.0 °F 78% 29.92 in - WSW 4.6 mph - N/A   Clear
2:20 AM 75.2 °F - 68.0 °F 78% 29.92 in - SW 5.8 mph - N/A   Clear
3:00 AM 74 °F - 69 °F 81% 29.91 in 6 mi SW 6.9 mph - -   Scattered Clouds
3:20 AM 73.4 °F - 69.8 °F 88% 29.89 in - SW 6.9 mph - N/A   Clear
3:50 AM 73.4 °F - 69.8 °F 88% 29.89 in - SW 6.9 mph - N/A   Clear
4:20 AM 73.4 °F - 69.8 °F 88% 29.89 in - SW 6.9 mph - N/A   Clear
4:50 AM 73.4 °F - 69.8 °F 88% 29.89 in - SW 6.9 mph - N/A   Clear
5:20 AM 73.4 °F - 69.8 °F 88% 29.89 in - SW 6.9 mph - N/A   Clear
5:50 AM 73.4 °F - 69.8 °F 88% 29.89 in - SW 6.9 mph - N/A   Clear
6:20 AM 73.4 °F - 69.8 °F 88% 29.89 in - SW 6.9 mph - N/A   Clear
6:50 AM 73.4 °F - 69.8 °F 88% 29.89 in 5.0 mi SW 6.9 mph - N/A   Partly Cloudy
7:20 AM 73.4 °F - 69.8 °F 88% 29.89 in 5.0 mi SSW 6.9 mph - N/A   Partly Cloudy
7:50 AM 73.4 °F - 68.0 °F 83% 29.89 in 5.0 mi SW 6.9 mph - N/A   Partly Cloudy
8:20 AM 73.4 °F - 68.0 °F 83% 29.89 in 5.0 mi SW 6.9 mph - N/A   Partly Cloudy
8:50 AM 75.2 °F - 69.8 °F 83% 29.92 in 5.0 mi SW 6.9 mph - N/A   Partly Cloudy
9:00 AM 75 °F - 70 °F 79% 29.93 in 5 mi SW 6.9 mph - -   Mist
9:20 AM 75.2 °F - 69.8 °F 83% 29.92 in 5.0 mi SW 6.9 mph - N/A   Partly Cloudy
9:50 AM 78.8 °F - 73.4 °F 83% 29.92 in 5.0 mi WSW 6.9 mph - N/A   Partly Cloudy
10:20 AM 78.8 °F - 73.4 °F 83% 29.92 in 5.0 mi WSW 6.9 mph - N/A   Partly Cloudy
10:50 AM 78.8 °F - 73.4 °F 83% 29.95 in 5.0 mi WSW 9.2 mph - N/A   Scattered Clouds
11:20 AM 78.8 °F - 73.4 °F 83% 29.95 in 5.0 mi WSW 9.2 mph - N/A   Scattered Clouds
11:50 AM 80.6 °F 85.4 °F 73.4 °F 79% 29.92 in 5.0 mi West 11.5 mph - N/A   Scattered Clouds
12:20 PM 80.6 °F 85.4 °F 73.4 °F 79% 29.92 in 5.0 mi West 11.5 mph - N/A   Scattered Clouds
12:50 PM 80.6 °F 85.4 °F 73.4 °F 79% 29.92 in 5.0 mi WSW 12.7 mph - N/A   Scattered Clouds
1:20 PM 80.6 °F 85.4 °F 73.4 °F 79% 29.92 in 5.0 mi WSW 12.7 mph - N/A   Scattered Clouds
1:50 PM 80.6 °F 85.4 °F 73.4 °F 79% 29.92 in 5.6 mi WSW 12.7 mph - N/A   Partly Cloudy
2:20 PM 80.6 °F 85.4 °F 73.4 °F 79% 29.92 in 5.0 mi WSW 15.0 mph - N/A   Scattered Clouds
2:50 PM 80.6 °F 86.2 °F 75.2 °F 84% 29.92 in 5.0 mi WSW 15.0 mph - N/A   Scattered Clouds
3:00 PM 80 °F - 74 °F 79% 29.93 in 5 mi WSW 15.0 mph - -   Mist
3:20 PM 78.8 °F - 73.4 °F 83% 29.92 in 5.0 mi WSW 12.7 mph - N/A   Scattered Clouds
3:50 PM 80.6 °F 85.4 °F 73.4 °F 79% 29.89 in 5.0 mi WSW 13.8 mph - N/A   Scattered Clouds
4:20 PM 80.6 °F 85.4 °F 73.4 °F 79% 29.89 in 5.0 mi WSW 13.8 mph - N/A   Scattered Clouds
4:50 PM 80.6 °F 85.4 °F 73.4 °F 79% 29.89 in 5.6 mi WSW 13.8 mph - N/A   Scattered Clouds
5:20 PM 78.8 °F - 73.4 °F 83% 29.89 in 5.6 mi WSW 16.1 mph - N/A   Scattered Clouds
5:50 PM 78.8 °F - 73.4 °F 83% 29.89 in 5.6 mi SW 11.5 mph - N/A   Scattered Clouds
6:20 PM 78.8 °F - 73.4 °F 83% 29.89 in 5.0 mi SW 10.4 mph - N/A   Scattered Clouds
6:50 PM 77.0 °F - 69.8 °F 78% 29.89 in 5.0 mi WSW 5.8 mph - N/A   Scattered Clouds
7:20 PM 77.0 °F - 68.0 °F 74% 29.89 in 5.0 mi WSW 8.1 mph - N/A   Scattered Clouds
7:50 PM 75.2 °F - 69.8 °F 83% 29.89 in 5.0 mi WSW 5.8 mph - N/A   Scattered Clouds
8:20 PM 75.2 °F - 69.8 °F 83% 29.89 in 5.0 mi SW 4.6 mph - N/A   Scattered Clouds
8:50 PM 77.0 °F - 68.0 °F 74% 29.89 in 5.0 mi SW 5.8 mph - N/A   Scattered Clouds
9:00 PM 77 °F - 69 °F 69% 29.91 in 5 mi SW 5.8 mph - -   Mist
9:20 PM 77.0 °F - 68.0 °F 74% 29.89 in 5.0 mi WSW 6.9 mph - N/A   Scattered Clouds
9:50 PM 77.0 °F - 71.6 °F 83% 29.89 in 5.0 mi SW 5.8 mph - N/A   Scattered Clouds
10:20 PM 77.0 °F - 71.6 °F 83% 29.89 in 5.0 mi SW 5.8 mph - N/A   Scattered Clouds
10:50 PM 75.2 °F - 71.6 °F 89% 29.89 in 5.0 mi SW 6.9 mph - N/A   Scattered Clouds
11:20 PM 75.2 °F - 71.6 °F 89% 29.89 in 5.0 mi SW 6.9 mph - N/A   Scattered Clouds
11:50 PM 75.2 °F - 69.8 °F 83% 29.89 in 5.0 mi Calm Calm - N/A   Scattered Clouds